Location: Austin
(30.3000°N, 97.7500°W)
Time: 11:52:27
(UTC-05:00)

Cosmos 2219 Rocket - Pass Details

Date: 26 May 2023
Orbit: 827 x 847 km, 71.0° (Epoch: 31 May)

Event Time Altitude Azimuth Distance (km) Brightness Sun altitude
Rises 21:21:03 0° 200° (SSW) 3,388 5.2 -11.4°
Reaches altitude 10° 21:23:29 10° 201° (SSW) 2,458 4.5 -11.9°
Maximum altitude 21:29:09 83° 290° (WNW) 856 2.3 -12.9°
Drops below altitude 10° 21:34:50 10° 18° (NNE) 2,471 4.8 -13.9°
Sets 21:37:18 0° 19° (NNE) 3,407 5.6 -14.3°
